16.6,99.9,1016.2,202107070030
16.6,99.9,1016.1,202107070100
16.9,99.9,1016.5,202107070130
17.1,99.9,1016.6,202107070200
17.1,99.9,1016.2,202107070230
17.0,99.9,1016.6,202107070300
16.9,99.9,1016.7,202107070330
16.9,99.9,1016.8,202107070400
17.1,99.9,1017.5,202107070430
17.1,99.9,1017.5,202107070500
17.1,99.9,1017.6,202107070530
16.9,99.9,1017.7,202107070600
16.4,99.9,1017.7,202107070630
16.1,99.9,1018.1,202107070700
16.3,99.9,1018.2,202107070730
16.6,99.9,1018.7,202107070800
16.6,99.9,1019.0,202107070830
17.2,99.9,1019.2,202107070900
18.0,99.9,1019.5,202107070930
18.3,99.9,1019.6,202107071000
18.8,99.9,1019.7,202107071030
18.9,99.9,1019.6,202107071100
17.5,99.9,1019.7,202107071130
17.5,99.9,1019.7,202107071200
18.1,99.9,1019.4,202107071230
18.1,99.9,1019.4,202107071300
17.8,99.9,1019.6,202107071330
17.8,99.9,1019.7,202107071400
18.6,99.9,1019.7,202107071430
18.9,99.9,1019.8,202107071500
18.4,99.9,1019.9,202107071530
18.2,99.9,1019.8,202107071600
18.2,99.9,1019.9,202107071630
17.8,99.9,1019.5,202107071700
17.5,99.9,1019.8,202107071730
17.2,99.9,1019.9,202107071800
16.9,99.9,1019.9,202107071830
16.8,99.9,1020.0,202107071900
16.5,99.9,1020.4,202107071930
16.7,99.9,1020.3,202107072000
16.6,99.9,1020.6,202107072030
16.8,99.9,1020.6,202107072100
16.9,99.9,1020.6,202107072130
16.8,99.9,1020.7,202107072200
15.8,99.9,1020.4,202107072230
15.8,99.9,1020.7,202107072300
15.9,99.9,1020.3,202107072330
15.8,99.9,1020.0,202107080000
15.7,99.9,1019.8,202107080030
15.9,99.9,1020.0,202107080100
15.8,99.9,1019.7,202107080130
15.8,99.9,1019.0,202107080200
15.9,99.9,1019.3,202107080230
16.1,99.9,1019.3,202107080300
15.9,99.9,1019.4,202107080330
15.9,99.9,1019.5,202107080400
16.1,99.9,1019.7,202107080430
16.2,99.9,1019.6,202107080500
16.2,99.9,1019.6,202107080530
17.6,99.9,1019.7,202107080600
17.1,99.9,1019.9,202107080630
16.6,99.9,1019.6,202107080700
17.0,99.9,1019.9,202107080730
17.3,99.9,1020.0,202107080800
17.8,99.9,1020.2,202107080830
17.7,99.9,1020.7,202107080900
17.7,99.9,1020.3,202107080930
18.2,99.9,1020.0,202107081000
17.9,99.9,1020.0,202107081030
17.8,99.9,1020.2,202107081100
17.9,99.9,1020.8,202107081130
18.4,99.9,1020.8,202107081200
17.5,99.9,1021.7,202107081230
17.4,99.9,1021.3,202107081300
18.0,99.9,1019.8,202107081330
17.1,99.9,1018.6,202107081400
17.4,99.9,1018.5,202107081430
17.3,99.9,1018.7,202107081500
17.4,99.9,1019.5,202107081530
17.3,99.9,1019.5,202107081600
16.0,99.9,1020.3,202107081630
16.0,99.9,1020.2,202107081700
16.4,99.9,1019.7,202107081730
16.0,99.9,1019.9,202107081800
15.2,99.9,1019.7,202107081830
15.2,99.9,1019.7,202107081900
14.5,99.9,1019.7,202107081930
14.2,99.9,1019.8,202107082000
14.4,99.9,1019.8,202107082030
14.4,99.9,1020.5,202107082100
14.4,99.9,1020.4,202107082130
14.4,99.9,1020.3,202107082200
14.4,99.9,1018.9,202107082230
14.5,99.9,1019.1,202107082300
14.2,99.9,1019.2,202107082330
14.1,99.9,1019.0,202107090000
